Other Public Products
Issued by NWS Charleston, SC

Current Version | Previous Version | Graphics & Text | Print | Product List | Glossary On
Versions: 1 2 3 4 5 6 7 8 9 10 11 12 13 14 15 16 17 18 19 20 21 22 23 24 25 26 27 28 29 30 31 32 33 34 35 36 37 38 39 40 41 42 43 44 45 46 47 48 49 50
000
FPUS82 KCHS 222042
OPUCHS

TEST...KCHS/KSAV Gateway Observations...TEST
National Weather Service Charleston SC
400 PM EDT FRI SEP 22 2017

NOTE: "fair" indicates few or no clouds below 12,000 feet with no
significant weather and/or obstructions to visibility.

SCZ050-WAZ558-NCZ071-TXZ119-213-PAZ071-DCZ001-FLZ074-172-MI076-
NYZ176-178-MAZ016-IL014-TNZ027-NJZ106-GAZ044-MD014-222100-

...Gateway Observations for Charleston International...

CITY           SKY/WX    TMP DP  RH WIND       PRES   REMARKS
Chas Airport   PTSUNNY   84  71  65 SE16      29.98F
Seattle        PTSUNNY   62  47  57 W7        30.05F
Charlotte      PTSUNNY   86  63  45 N9        30.03F
Dallas DFW     MOSUNNY   92  67  43 SE12G22   29.91F HX  95
Dallas Love    MOSUNNY   92  65  40 SE12      29.92F HX  94
Philladelphia  PTSUNNY   82  58  43 NW15      29.95F
Wash National  CLOUDY    82  65  56 N10       30.01F
Baltimore      CLOUDY    80  64  58 NW10      29.99F
Miami          LGT RAIN  79  78  97 CALM      29.86S
Detroit        MOSUNNY   88  70  55 VRB3      30.09F HX  93
Newark         PTSUNNY   85  56  37 N17       29.94F
Laguardia      MOSUNNY   80  57  45 N17G24    29.94S
J F K          PTSUNNY   83  57  41 N17       29.93F
Boston Logan   LGT RAIN  60  57  89 N21G32    29.99S FOG
Ft. Lauderdale CLOUDY    84  77  79 CALM      29.84S HX  94
Chicago O`Hare MOSUNNY   94  62  34 VRB6      30.03F HX  94
Chicago Midway MOSUNNY   94  66  39 SW3       30.03F HX  97
Houston Bush   MOSUNNY   91  72  53 SE13      29.94F HX  98
Houston Hobby  MOSUNNY   91  72  53 E10       29.93F HX  98
Nashville      MOSUNNY   91  63  39 CALM      30.03F HX  92
Atlanta        MOSUNNY   89  64  43 E6        30.02F HX  90

$$

GAZ044-118-TXZ119-213-NCZ071-DCZ001-MDZ014-506-PAZ021-071-NJZ106-
NYZ176-178-MAZ106-OHZ011-021-055-MIZ076-KYZ091-ILZ014-INZ047-
MNZ060-ONZ431-222100-

...Gateway Observations for Savannah International...

CITY           SKY/WX    TMP DP  RH WIND       PRES   REMARKS
Savannah Arpt  PTSUNNY   86  68  54 E8        29.98F
Atlanta        MOSUNNY   89  64  43 E6        30.02F HX  90
Charlotte      PTSUNNY   86  63  45 N9        30.03F
Dallas DFW     MOSUNNY   92  67  43 SE12G22   29.91F HX  95
Houston Bush   MOSUNNY   91  72  53 SE13      29.94F HX  98
Wash National  CLOUDY    82  65  56 N10       30.01F
Wash Dulles    CLOUDY    81  62  52 N9        30.02F
Baltimore      CLOUDY    80  64  58 NW10      29.99F
Philadelphia   PTSUNNY   82  58  43 NW15      29.95F
Newark         PTSUNNY   85  56  37 N17       29.94F
Laguardia      MOSUNNY   80  57  45 N17G24    29.94S
J F K          PTSUNNY   83  57  41 N17       29.93F
Boston         LGT RAIN  60  57  89 N21G32    29.99S FOG
Pittsburg      PTSUNNY   86  56  35 CALM      30.09F
Akron          PTSUNNY   88  59  37 VRB6      30.11F
Cleveland      CLOUDY    89  61  38 N12       30.10F
Cincinnati     PTSUNNY   88  67  49 CALM      30.06F HX  91
Columbus       MOSUNNY   86  64  48 CALM      30.06F
Detroit        MOSUNNY   88  70  55 VRB3      30.09F HX  93
Chicago O`Hare MOSUNNY   94  62  34 VRB6      30.03F HX  94
Minneapolis    MOSUNNY   93  72  50 S14G26    29.80F HX 101
Indianapolis   MOSUNNY   91  66  43 SE5       30.05F HX  93
Toronto Canada MOSUNNY   79  54  41 SE9       30.11F

$$




USA.gov is the U.S. government's official web portal to all federal, state and local government web resources and services.